sat.trackr.live / text

‹ back to catalog

STARLINK-35901

NORAD 67043 · 2025-294P

PAYLOAD ACTIVE UNKNOWN

§ Identity

Operator
Country
US
Launch date
2025-12-11
Launch site
AFETR
Launch vehicle
Mass (kg)
RCS (m²)

Purposes: comms

External: N2YO · Heavens-Above · Gunter

§ Orbital elements

Epoch: 2026-05-24T21:40:35.430240Z

Period
94.26 min
Inclination
43.0046°
Eccentricity
0.0001703
Mean motion
15.27625034 rev/d
Perigee alt
481.7 km
Apogee alt
484.1 km
Semi-major
6,861.1 km
B*
1.0290e-3
RAAN
327.7926°
Arg perigee
290.2987°
Mean anomaly
69.7682°
Rev number
2,645

§ Raw data

STARLINK-359011 67043U 25294P   26144.90318785  .00028200  00000+0  10290-2 0  99952 67043  43.0046 327.7926 0001703 290.2987  69.7682 15.27625034 26453

JSON: /api/v1/satellites/67043 · /tle

For live sub-satellite position, see the globe view (requires WebGL).

§ Visibility from observer

Set your observer location to see the next 7 days of passes ≥ 10°. The values pass through the URL so the page stays shareable.

No JS? Fill the form by hand. The geolocation button needs JavaScript.